Home   Weather   Charlotte   Past weeks

Flag for USA Past Weather in Charlotte, North Carolina, USA — Yesterday and Last 2 Weeks

Now
85 °F

Scattered clouds.


Feels Like: 86 °F
Forecast: 71 / 90 °F
Wind: No wind

Location: Charlotte / Douglas International Airport

Current Time: Aug 31, 2016 at 10:32:48 AM

Latest Report: Aug 31, 2016 at 9:52 AM


Visibility: 10 mi

Pressure: 30.01 "Hg

Humidity: 50%

Dew Point: 64 °F

Location of CharlotteLocation

Past Weather in Charlotte — Graph

°F

Charlotte Temperature Yesterday

Maximum temperature yesterday: 90 °F (at 2:52 PM)
Minimum temperature yesterday: 68 °F (at 6:52 AM)
Average temperature yesterday: 80 °F

High & Low Weather Summary for the Past Weeks

 TemperatureHumidityPressure
High97 °F (Aug 26, 2:52 PM)94% (Aug 21, 10:52 PM)30.30 "Hg (Aug 21, 10:52 PM)
Low66 °F (Aug 23, 6:52 AM)31% (Aug 28, 5:52 PM)29.83 "Hg (Aug 21, 2:52 AM)
Average81 °F65%30.08 "Hg
* Reported Aug 16 8:52 AM — Aug 31 8:52 AM, Charlotte, Weather by CustomWeather, © 2016

Note: Actual official high and low records may vary slightly from our data, if they occured in-between our weather recording intervals... More about our weather records

Advertising

Charlotte Weather History for the Previous 24 Hours

Scroll right to see more
 ConditionsComfort  
Time TempWeatherWind HumidityBarometerVisibility
8:52 AM
Wed, Aug 31
82 °FScattered clouds.5 mph58%30.00 "Hg10 mi
7:52 AM74 °FPassing clouds.No wind82%30.00 "Hg10 mi
6:52 AM74 °FPassing clouds.No wind76%30.00 "Hg10 mi
5:52 AM73 °FPassing clouds.No wind81%29.99 "Hg10 mi
4:52 AM73 °FPartly cloudy.No wind79%30.00 "Hg10 mi
3:52 AM73 °FPartly cloudy.5 mph79%30.01 "Hg10 mi
2:52 AM76 °FPassing clouds.No wind72%30.02 "Hg10 mi
1:52 AM77 °FPassing clouds.3 mph69%30.02 "Hg10 mi
12:52 AM77 °FPassing clouds.No wind69%30.02 "Hg10 mi
11:52 PM
Tue, Aug 30
80 °FPassing clouds.5 mph60%30.02 "Hg10 mi
10:52 PM82 °FPassing clouds.5 mph56%30.02 "Hg10 mi
9:52 PM80 °FPassing clouds.5 mph60%30.01 "Hg10 mi
8:52 PM84 °FClear.5 mph51%30.00 "Hg10 mi
7:52 PM83 °FPartly sunny.6 mph53%29.99 "Hg10 mi
6:52 PM88 °FBroken clouds.8 mph48%29.99 "Hg10 mi
5:52 PM86 °FBroken clouds.5 mph51%30.01 "Hg10 mi
4:52 PM89 °FBroken clouds.5 mph42%30.01 "Hg10 mi
3:52 PM88 °FPartly sunny.8 mph43%30.02 "Hg10 mi
2:52 PM90 °FPartly sunny.5 mph42%30.05 "Hg10 mi
1:52 PM89 °FScattered clouds.5 mph42%30.08 "Hg10 mi
12:52 PM87 °FBroken clouds.6 mph46%30.10 "Hg10 mi
11:52 AM86 °FBroken clouds.10 mph46%30.12 "Hg10 mi
10:52 AM86 °FScattered clouds.8 mph48%30.12 "Hg10 mi
Weather by CustomWeather, © 2016

See weather overviewHow to use our weather pages